"Time","Temp","Dewpoint","Humidity","Pressure","Direction","Speed","Gust","Precip","PrecipRate","Solar"
"00:04:58","51.8","50.7","96","30.20","110","0.3","2.4","0.00","0.01","0"
"00:09:56","51.8","50.7","96","30.20","110","0.4","2.4","0.00","0.01","0"
"00:14:58","51.8","50.7","96","30.21","110","0.1","2.3","0.00","0.01","0"
"00:19:56","51.7","50.6","96","30.21","110","0.1","1.2","0.01","0.01","0"
"00:24:59","51.7","50.6","96","30.21","110","0.1","1.2","0.02","0.01","0"
"00:29:59","51.7","50.6","96","30.21","110","0","1.2","0.02","0.02","0"
"00:34:57","51.7","50.6","96","30.21","110","0","1.2","0.02","0.02","0"
"00:39:58","51.7","50.6","96","30.21","109","0.4","3.6","0.02","0.02","0"
"00:44:59","51.7","50.6","96","30.21","109","0","1.2","0.03","0.03","0"
"00:49:56","51.7","50.6","96","30.20","109","0","1.2","0.03","0.03","0"
"00:54:57","51.7","50.6","96","30.20","109","0","1.2","0.04","0.04","0"
"00:59:58","51.7","50.6","96","30.20","109","0","0","0.04","0.04","0"
"01:04:56","51.7","50.6","96","30.20","105","0","1.2","0.04","0.04","0"
"01:09:59","51.7","50.6","96","30.20","105","0","1.2","0.04","0.04","0"
"01:14:57","51.7","50.6","96","30.20","105","0","0","0.04","0.04","0"
"01:19:58","51.8","50.7","96","30.19","105","0","0","0.04","0.04","0"
"01:24:56","51.8","50.7","96","30.19","105","0","0","0.04","0.03","0"
"01:29:58","51.8","50.7","96","30.19","105","0","0","0.04","0.02","0"
"01:34:56","51.8","50.7","96","30.18","105","0","0","0.04","0.02","0"
"01:39:56","51.8","50.7","96","30.18","105","0","0","0.05","0.03","0"
"01:44:58","51.9","50.8","96","30.18","105","0","0","0.06","0.03","0"
"01:49:58","51.9","50.8","96","30.18","105","0","0","0.07","0.04","0"
"01:54:55","51.9","50.8","96","30.18","105","0","0","0.07","0.04","0"
"01:59:56","51.9","50.8","96","30.18","105","0","0","0.07","0.03","0"
"02:04:59","51.9","50.8","96","30.18","105","0","0","0.08","0.04","0"
"02:09:57","51.9","50.8","96","30.18","105","0","0","0.08","0.04","0"
"02:14:56","51.9","50.8","96","30.18","105","0","0","0.09","0.05","0"
"02:19:56","51.9","50.8","96","30.18","105","0","0","0.09","0.05","0"
"02:24:57","51.9","50.8","96","30.18","105","0","0","0.10","0.06","0"
"02:29:58","51.9","50.8","96","30.18","105","0","0","0.11","0.06","0"
"02:34:59","51.9","50.8","96","30.17","105","0","0","0.11","0.07","0"
"02:39:56","51.9","50.8","96","30.17","104","0","0","0.12","0.07","0"
"02:44:58","51.9","50.8","96","30.17","104","0","0","0.12","0.07","0"
"02:49:58","51.9","50.8","96","30.17","104","0","0","0.12","0.06","0"
"02:54:59","51.9","50.8","96","30.17","104","0","0","0.13","0.06","0"
"02:59:56","51.9","50.8","96","30.17","104","0","0","0.13","0.06","0"
"03:04:59","51.9","50.8","96","30.17","104","0","0","0.14","0.06","0"
"03:09:58","51.9","50.8","96","30.17","104","0","0","0.14","0.06","0"
"03:14:56","51.9","50.8","96","30.17","104","0","0","0.15","0.06","0"
"03:19:56","52","50.9","96","30.17","104","0","0","0.15","0.06","0"
"03:24:57","52","50.9","96","30.17","104","0","0","0.15","0.06","0"
"03:29:58","52","50.9","96","30.17","104","0","0","0.16","0.06","0"
"03:34:56","52.1","51","96","30.17","104","0","0","0.16","0.05","0"
"03:39:58","52.1","51","96","30.17","104","0","0","0.16","0.05","0"
"03:44:56","52.1","51","96","30.17","104","0","0","0.17","0.05","0"
"03:49:57","52.1","51","96","30.17","104","0","0","0.17","0.05","0"
"03:54:58","52.1","51","96","30.17","104","0","0","0.17","0.05","0"
"03:59:56","52.1","51","96","30.17","104","0","0","0.18","0.05","0"
"04:04:59","52.1","51","96","30.16","104","0","0","0.18","0.05","0"
"04:09:58","52.1","51","96","30.16","104","0","0","0.18","0.04","0"
"04:14:57","52.1","51","96","30.16","104","0","0","0.18","0.04","0"
"04:19:56","52.1","51","96","30.16","104","0","0","0.19","0.04","0"
"04:24:56","52","50.9","96","30.16","104","0","0","0.20","0.04","0"
"04:29:58","52","50.9","96","30.16","104","0","0","0.20","0.05","0"
"04:34:56","52","50.9","96","30.16","101","0","0","0.21","0.04","0"
"04:39:57","52","50.9","96","30.16","101","0","0","0.21","0.05","0"
"04:44:59","52","50.9","96","30.16","101","0","0","0.21","0.05","0"
"04:49:59","52.1","51","96","30.16","101","0","0","0.22","0.05","0"
"04:54:57","52.1","51","96","30.16","101","0","0","0.22","0.05","0"
"04:59:57","52.1","51","96","30.16","101","0","0","0.22","0.05","0"
"05:04:56","52.1","51","96","30.15","101","0","0","0.22","0.04","0"
"05:09:59","52.1","51","96","30.15","101","0","0","0.23","0.04","0"
"05:14:57","52.2","51.1","96","30.15","101","0","0","0.23","0.05","0"
"05:19:58","52.2","51.1","96","30.15","101","0","0","0.23","0.05","0"
"05:24:56","52.2","51.1","96","30.15","101","0","0","0.24","0.05","0"
"05:29:57","52.2","51.1","96","30.16","101","0","0","0.24","0.04","0"
"05:34:58","52.2","51.1","96","30.16","101","0","0","0.24","0.04","0"
"05:39:59","52.2","51.1","96","30.16","101","0","0","0.25","0.03","0"
"05:44:57","52.2","51.1","96","30.16","101","0","0","0.25","0.04","0"
"05:49:58","52.2","51.1","96","30.16","101","0","0","0.25","0.04","0"
"05:54:56","52.2","51.1","96","30.16","101","0","0","0.25","0.03","0"
"05:59:57","52.2","51.1","96","30.16","101","0","0","0.25","0.03","0"
"06:04:56","52.2","51.1","96","30.16","101","0","0","0.26","0.04","0"
"06:09:56","52.3","51.2","96","30.16","101","0","0","0.26","0.04","0"
"06:14:59","52.3","51.2","96","30.16","100","0","0","0.26","0.03","0"
"06:19:56","52.3","51.3","96.2","30.16","100","0","0","0.26","0.03","0"
"06:24:57","52.4","51.5","96.8","30.16","100","0","0","0.26","0.03","0"
"06:29:59","52.4","51.5","96.7","30.16","100","0","0","0.26","0.02","0"
"06:34:56","52.4","51.5","96.7","30.16","100","0","0","0.26","0.02","5"
"06:39:58","52.5","51.6","96.8","30.16","100","0","0","0.27","0.03","11"
"06:44:59","52.5","51.7","97","30.16","100","0","0","0.27","0.02","18"
"06:49:56","52.5","51.7","97","30.16","99","0","0","0.27","0.02","19"
"06:54:57","52.6","51.8","97","30.16","99","0","0","0.27","0.02","16"
"06:59:58","52.7","51.9","97","30.16","99","0","0","0.27","0.02","11"
"07:04:56","52.7","51.9","97","30.16","108","0","0","0.28","0.02","9"
"07:09:56","52.7","51.9","97","30.16","159","0","0","0.28","0.02","11"
"07:14:59","52.7","51.9","97","30.16","159","0","0","0.28","0.02","11"
"07:19:59","52.8","52","97","30.16","159","0","0","0.28","0.02","14"
"07:24:57","52.8","52","97","30.16","159","0","0","0.28","0.02","14"
"07:29:57","52.8","52","97","30.16","159","0","0","0.28","0.02","12"
"07:34:58","52.8","52","97","30.16","159","0","0","0.28","0.02","16"
"07:39:56","52.9","52.1","97","30.16","159","0","0","0.28","0.02","19"
"07:44:57","52.9","52.1","97","30.16","159","0","0","0.29","0.02","23"
"07:49:57","53","52.2","97","30.16","159","0","0","0.29","0.02","21"
"07:54:59","53.1","52.3","97","30.16","159","0","0","0.29","0.02","25"
"07:59:56","53.1","52.3","97","30.16","159","0","0","0.30","0.03","30"
"08:04:59","53.2","52.4","97","30.16","159","0","0","0.30","0.03","30"
"08:09:57","53.3","52.5","97","30.16","159","0","0","0.30","0.02","30"
"08:14:59","53.3","52.5","97","30.16","159","0","0","0.30","0.02","42"
"08:19:56","53.4","52.6","97","30.16","300","0.1","1.2","0.30","0.02","62"
"08:24:57","53.6","52.8","97","30.16","298","0.8","2.4","0.30","0.02","60"
"08:29:58","53.7","52.9","97","30.16","252","1.1","3.6","0.30","0.02","39"
"08:34:59","53.8","53","97","30.16","93","0","1.2","0.30","0.02","51"
"08:39:56","53.8","53","97","30.16","93","0.7","2.4","0.30","0.02","53"
"08:44:57","53.9","53.1","97","30.16","93","0.1","1.2","0.30","0.02","51"
"08:49:58","54","53.2","97","30.16","93","0","0","0.30","0.01","53"
"08:54:59","54.2","53.4","97","30.16","93","0.2","1.2","0.30","0.01","56"
"08:59:56","54.3","53.5","97","30.17","80","0.6","3.6","0.30","0.01","53"
"09:04:58","54.2","53.4","97","30.17","78","0.8","3.5","0.30","0.00","49"
"09:09:57","54.2","53.4","97","30.17","28","1.2","3.6","0.30","0.00","62"
"09:14:59","54.2","53.4","97","30.17","24","0.9","2.4","0.30","0.00","70"
"09:19:55","54.3","53.5","97","30.17","24","2","3.6","0.30","0.00","65"
"09:24:57","54.3","53.5","97","30.17","23","0","1.2","0.30","0.00","65"
"09:29:57","54.4","53.6","97","30.17","23","0.2","3.6","0.30","0.00","72"
"09:34:58","54.5","53.7","97","30.17","12","0.9","3.5","0.30","0.00","77"
"09:39:59","54.5","53.7","97","30.17","246","0.3","2.3","0.30","0.00","79"
"09:44:56","54.7","53.9","97","30.17","265","1.2","3.6","0.30","0.00","90"
"09:49:57","54.8","54","97","30.17","265","0.1","2.3","0.30","0.00","93"
"09:54:58","54.9","54.1","97","30.17","265","0","1.2","0.30","0.00","93"
"09:59:59","55","54.2","97","30.17","265","0.2","2.4","0.30","0.00","93"
"10:04:57","55","54.2","97","30.17","265","0.5","2.4","0.31","0.01","86"
"10:09:57","55.1","54.3","97","30.17","236","0.6","2.4","0.31","0.01","88"
"10:14:59","55.3","54.5","97","30.17","233","0.7","2.4","0.31","0.01","93"
"10:19:56","55.5","54.7","97","30.17","229","0.2","2.3","0.31","0.01","100"
"10:24:57","55.6","54.8","97","30.17","237","1.2","3.6","0.31","0.01","97"
"10:29:57","55.6","54.8","97","30.17","242","0.3","2.3","0.31","0.01","88"
"10:34:58","55.8","55","97","30.17","242","0.4","2.4","0.31","0.01","77"
"10:39:59","55.7","54.9","97","30.17","242","0.9","2.4","0.31","0.01","60"
"10:44:56","55.8","55","97","30.17","242","0.3","2.4","0.31","0.01","63"
"10:49:56","55.8","54.9","96.6","30.17","242","1","3.6","0.31","0.01","72"
"10:54:58","55.9","54.8","96","30.17","242","0.2","2.3","0.31","0.01","83"
"10:59:58","55.9","54.8","96","30.17","242","0","0","0.31","0.01","77"
"11:04:57","55.9","54.8","96","30.17","5","1.6","3.6","0.31","0.01","81"
"11:09:56","55.8","54.7","96","30.17","5","0.9","3.5","0.31","0.00","77"
"11:14:57","55.9","54.8","96","30.17","5","1.2","3.6","0.31","0.00","79"
"11:19:58","55.9","54.8","96","30.17","14","0.8","2.4","0.31","0.00","72"
"11:24:56","56.1","55","96","30.17","15","0.2","1.2","0.31","0.00","86"
"11:29:57","56.2","55.1","96","30.17","15","0","0","0.31","0.00","86"
"11:34:59","56.4","55.3","96","30.17","15","0","0","0.31","0.00","76"
"11:39:57","56.5","55.4","96","30.17","15","0.1","2.4","0.31","0.00","93"
"11:44:56","56.5","55.4","96","30.17","29","0","0","0.31","0.00","111"
"11:49:56","56.6","55.5","96","30.16","29","0","0","0.31","0.00","116"
"11:54:59","56.7","55.6","96","30.16","29","0","1.2","0.31","0.00","125"
"11:59:58","56.9","55.8","96","30.16","29","0.2","1.2","0.31","0.00","132"
"12:04:57","57.1","56","96","30.16","29","0","0","0.31","0.00","121"
"12:09:59","57.2","56.1","96","30.16","38","0.3","2.4","0.31","0.00","135"
"12:14:57","57.4","56.3","96","30.16","38","0","0","0.31","0.00","132"
"12:19:58","57.6","56.5","96","30.15","22","0","0","0.31","0.00","151"
"12:24:59","57.8","56.7","96","30.15","22","0.1","2.4","0.31","0.00","169"
"12:29:59","58.1","57","96","30.15","22","0.5","2.4","0.31","0.00","158"
"12:34:57","58.1","56.9","95.7","30.15","21","0","0","0.31","0.00","127"
"12:39:57","58.1","56.7","95","30.15","21","0.5","2.4","0.31","0.00","109"
"12:44:58","58.2","56.8","95","30.15","21","0.6","1.2","0.31","0.00","97"
"12:49:59","58.4","57","95","30.15","21","0.8","2.4","0.31","0.00","93"
"12:54:57","58.5","57.1","95","30.15","21","0.1","2.4","0.31","0.00","127"
"12:59:57","58.7","57.3","95","30.15","21","0.1","2.3","0.31","0.00","127"
"13:04:56","58.9","57.5","95","30.15","21","0.5","2.4","0.31","0.00","104"
"13:09:59","59","57.6","95","30.15","21","0.1","1.2","0.31","0.00","95"
"13:14:57","59","57.6","95","30.15","21","0","0","0.31","0.00","148"
"13:19:58","59.3","57.7","94.3","30.15","21","0","0","0.31","0.00","202"
"13:24:59","59.5","58","94.5","30.15","21","0.1","1.2","0.31","0.00","278"
"13:29:59","59.9","58.2","94","30.15","21","0.5","2.4","0.31","0.00","221"
"13:34:56","60","58.3","94","30.13","21","0","0","0.31","0.00","183"
"13:39:58","60.2","58.5","94","30.13","21","0","1.2","0.31","0.00","158"
"13:44:59","60.6","58.8","93.9","30.13","21","0.9","2.4","0.31","0.00","146"
"13:49:59","60.7","58.7","93","30.13","20","0.3","2.4","0.31","0.00","139"
"13:54:57","60.9","58.9","93","30.13","20","0.3","2.4","0.31","0.00","139"
"13:59:57","61.1","59.1","93","30.13","21","0.6","2.4","0.31","0.00","178"
"14:04:56","61.2","59.2","93","30.12","54","1.3","3.6","0.31","0.00","183"
"14:09:58","61.4","59.3","92.8","30.12","55","0.1","2.3","0.31","0.00","190"
"14:14:57","61.6","59.4","92.4","30.12","59","0.7","2.4","0.31","0.00","225"
"14:19:58","61.8","59.5","92","30.12","58","0.3","2.4","0.31","0.00","223"
"14:24:59","62.2","59.8","92","30.12","58","0","0","0.31","0.00","192"
"14:29:59","62.3","59.8","91.6","30.12","58","0","0","0.31","0.00","160"
"14:34:56","62.4","59.8","91.5","30.12","58","0","0","0.31","0.00","132"
"14:39:57","62.5","60.1","92","30.12","58","0","0","0.31","0.00","199"
"14:44:58","62.6","60.1","91.7","30.12","57","0.1","1.2","0.31","0.00","204"
"14:49:59","62.7","60.1","91.2","30.10","58","0","0","0.31","0.00","139"
"14:54:56","62.7","60","91","30.10","58","0.2","1.2","0.31","0.00","109"
"14:59:56","62.6","59.9","91","30.10","58","0.3","2.4","0.31","0.00","93"
"15:04:59","62.6","59.9","91","30.10","58","0.5","3.6","0.31","0.00","100"
"15:09:57","62.6","60.2","92","30.10","58","0","1.2","0.31","0.00","98"
"15:14:59","62.7","60.2","91.8","30.10","58","0.2","2.4","0.31","0.00","76"
"15:19:56","62.8","60.4","92","30.10","58","0.7","2.4","0.31","0.00","74"
"15:24:57","62.9","60.5","92","30.10","58","0.4","2.4","0.31","0.00","95"
"15:29:57","63.2","60.8","92","30.10","66","0.1","1.2","0.31","0.00","114"
"15:34:58","63.3","60.9","92","30.09","70","0.7","3.6","0.31","0.00","107"
"15:39:59","63.5","60.9","91.5","30.09","72","1.4","3.6","0.31","0.00","146"
"15:44:56","63.7","61.1","91.3","30.09","75","1","3.6","0.31","0.00","179"
"15:49:57","64","61.5","91.5","30.09","95","1","3.6","0.31","0.00","204"
"15:54:58","64.3","61.8","91.5","30.09","155","1.8","4.8","0.31","0.00","153"
"15:59:58","64.4","61.7","91","30.09","149","1.4","3.6","0.31","0.00","120"
"16:04:57","64.3","61.6","91","30.09","165","1.2","3.6","0.31","0.00","125"
"16:09:59","64.4","61.7","91","30.09","165","0.8","3.6","0.31","0.00","118"
"16:14:57","64.5","61.8","91","30.09","166","0.5","2.4","0.31","0.00","102"
"16:19:57","64.6","61.7","90.5","30.08","167","2.3","4.8","0.31","0.00","91"
"16:24:58","64.6","61.7","90.4","30.08","170","1.8","4.8","0.31","0.00","84"
"16:29:59","64.5","61.8","90.8","30.08","171","0","1.2","0.31","0.00","77"
"16:34:56","64.6","61.9","91","30.08","171","0","0","0.31","0.00","72"
"16:39:57","64.6","61.9","91","30.08","171","0.4","2.4","0.31","0.00","67"
"16:44:58","64.7","62","91","30.08","171","1.3","3.6","0.31","0.00","76"
"16:49:58","64.7","62","91","30.08","190","0.2","2.3","0.31","0.00","51"
"16:54:59","64.7","62","91","30.08","199","0.2","2.4","0.31","0.00","53"
"16:59:56","64.7","62","91","30.08","199","0.9","2.4","0.31","0.00","51"
"17:04:59","64.7","62","91","30.08","199","1.3","3.6","0.31","0.00","62"
"17:09:57","64.7","62","91","30.08","199","1","3.6","0.31","0.00","63"
"17:14:59","64.7","62","91","30.09","199","0.5","2.4","0.31","0.00","69"
"17:19:59","64.8","62.1","91","30.09","243","1","3.6","0.31","0.00","93"
"17:24:57","64.9","62.4","91.7","30.09","293","1.2","3.6","0.31","0.00","100"
"17:29:57","65","62.5","91.8","30.09","293","0.7","2.4","0.31","0.00","84"
"17:34:58","65","62.4","91.2","30.09","256","1.1","3.6","0.31","0.00","93"
"17:39:59","65.1","62.4","91","30.09","194","0.4","2.4","0.31","0.00","111"
"17:44:56","65.4","62.7","91.2","30.09","194","0.3","2.4","0.31","0.00","120"
"17:49:57","65.7","63.2","91.9","30.08","194","0.1","1.2","0.31","0.00","130"
"17:54:59","65.8","63.1","91","30.08","194","0","1.2","0.31","0.00","130"
"17:59:56","65.9","63.2","91","30.08","194","0.3","2.4","0.31","0.00","98"
"18:04:58","66","63.3","91","30.08","194","0.5","2.4","0.31","0.00","142"
"18:09:57","66.3","63.6","91","30.08","194","0.5","3.6","0.31","0.00","197"
"18:14:59","66.5","63.7","90.7","30.08","194","0.9","3.6","0.31","0.00","172"
"18:19:59","66.6","63.6","90","30.07","194","1.3","4.8","0.31","0.00","79"
"18:24:56","66.5","63.5","90","30.07","194","1.1","3.6","0.31","0.00","69"
"18:29:56","66.4","63.4","90","30.07","194","0.3","2.3","0.31","0.00","70"
"18:34:57","66.5","63.5","90","30.07","194","0","0","0.31","0.00","79"
"18:39:58","66.5","63.5","90","30.07","194","0","0","0.31","0.00","79"
"18:44:59","66.5","63.5","90","30.08","194","0","0","0.31","0.00","51"
"18:49:59","66.6","63.6","90","30.08","194","0","0","0.31","0.00","30"
"18:54:57","66.5","63.5","90","30.08","194","0.3","2.4","0.31","0.00","18"
"18:59:57","66.4","63.4","90","30.09","194","0","1.2","0.31","0.00","28"
"19:04:56","66.3","63.3","90","30.09","194","0.3","2.4","0.31","0.00","37"
"19:09:58","66.3","63.4","90.3","30.09","194","0","0","0.31","0.00","42"
"19:14:56","66.3","63.6","91","30.09","194","0","0","0.31","0.00","53"
"19:19:56","66.3","63.6","91","30.09","194","0","0","0.31","0.00","53"
"19:24:57","66.3","63.6","91","30.09","194","0","0","0.31","0.00","25"
"19:29:58","66.4","63.7","91","30.09","194","0","0","0.31","0.00","12"
"19:34:58","66.3","63.6","91","30.09","194","0","0","0.31","0.00","7"
"19:39:56","66.3","63.6","91","30.09","194","0","0","0.31","0.00","5"
"19:44:57","66.2","63.5","91","30.09","194","0","0","0.31","0.00","5"
"19:49:58","66.1","63.4","91","30.08","194","0","0","0.31","0.00","0"
"19:54:56","66","63.3","91","30.08","194","0","0","0.31","0.00","0"
"19:59:57","65.9","63.4","91.9","30.08","194","0","0","0.31","0.00","0"
"20:04:56","65.6","63.2","92","30.08","194","0","0","0.31","0.00","0"
"20:09:56","65.4","63","92","30.08","194","0","0","0.31","0.00","0"
"20:14:59","65.2","62.8","92","30.08","194","0","0","0.31","0.00","0"
"20:19:56","65.1","62.9","92.7","30.08","194","0","0","0.31","0.00","0"
"20:24:58","65","62.9","93","30.08","194","0","0","0.31","0.00","0"
"20:29:59","64.9","62.8","93","30.08","194","0","0","0.31","0.00","0"
"20:34:57","64.8","62.7","93","30.08","194","0","0","0.31","0.00","0"
"20:39:58","64.7","62.6","93","30.08","194","0","0","0.31","0.00","0"
"20:44:59","64.6","62.5","93","30.08","194","0","0","0.31","0.00","0"
"20:49:56","64.4","62.3","93","30.07","194","0","0","0.31","0.00","0"
"20:54:58","64.3","62.2","93","30.07","194","0","0","0.31","0.00","0"
"20:59:59","64.3","62.4","94","30.07","194","0","0","0.31","0.00","0"
"21:04:57","64.3","62.5","94","30.07","194","0","0","0.31","0.00","0"
"21:09:55","64.2","62.4","94","30.07","194","0","0","0.31","0.00","0"
"21:14:58","64.1","62.3","94","30.07","194","0","0","0.31","0.00","0"
"21:19:59","64.1","62.3","94","30.07","194","0","0","0.31","0.00","0"
"21:24:56","64","62.2","94","30.07","194","0","0","0.31","0.00","0"
"21:29:57","64","62.2","94","30.07","194","0","0","0.31","0.00","0"
"21:34:59","64","62.2","94","30.07","194","0","0","0.31","0.00","0"
"21:39:56","64.1","62.6","94.8","30.07","194","0","0","0.31","0.00","0"
"21:44:57","64.3","62.8","95","30.07","194","0","0","0.31","0.00","0"
"21:49:58","64.3","62.8","95","30.07","194","0","0","0.31","0.00","0"
"21:54:56","64.3","62.8","95","30.07","194","0","0","0.31","0.00","0"
"21:59:58","64.2","62.7","95","30.07","194","0","0","0.31","0.00","0"
"22:04:56","64.3","62.8","95","30.07","194","0","0","0.31","0.00","0"
"22:09:59","64.2","62.7","95","30.07","194","0","0","0.31","0.00","0"
"22:14:57","64.2","62.7","95","30.07","194","0","0","0.31","0.00","0"
"22:19:59","64.2","62.7","95","30.06","194","0","0","0.31","0.00","0"
"22:24:56","64.2","62.7","95","30.06","194","0","0","0.31","0.00","0"
"22:29:57","64.1","62.6","95","30.06","194","0","0","0.31","0.00","0"
"22:34:59","64","62.5","95","30.06","194","0","0","0.31","0.00","0"
"22:39:57","64","62.5","95","30.06","194","0","0","0.31","0.00","0"
"22:44:58","64","62.5","95","30.06","194","0","0","0.31","0.00","0"
"22:49:56","64","62.5","95","30.06","194","0","0","0.31","0.00","0"
"22:54:58","64.1","62.6","95","30.06","194","0","0","0.31","0.00","0"
"22:59:59","64.1","62.6","95","30.06","194","0","0","0.31","0.00","0"
"23:04:58","64.1","62.6","95","30.06","194","0","0","0.31","0.00","0"
"23:09:57","64.1","62.6","95","30.06","194","0","0","0.31","0.00","0"
"23:14:59","64.1","62.6","95","30.06","194","0","0","0.31","0.00","0"
"23:19:56","64.1","62.6","95","30.06","194","0","0","0.31","0.00","0"
"23:24:58","64.1","62.6","95","30.06","194","0","0","0.31","0.00","0"
"23:29:58","64","62.5","95","30.06","194","0","0","0.31","0.00","0"
"23:34:56","63.9","62.4","95","30.06","194","0","0","0.31","0.00","0"
"23:39:58","63.8","62.3","95","30.06","194","0","0","0.31","0.00","0"
"23:44:55","63.8","62.3","95","30.06","194","0","0","0.31","0.00","0"
